Powrót do katalogu

HULIANWANG DIGUI-186

AktywnyNaukaLEO
NORAD 100211·PAYLOAD·🇨🇳 China

Wystrzelony Aug 4, 2026 z Wenchang Space Launch Site

Loading…

Następne Przeloty (najbliższe 24 godziny)

TLE

ŚwieżeSource: Space-Track

Epoka: Sep 14, 2026, 08:06 UTC

1 A0211U 26176J   26257.33795589 -.00000089  00000-0  75873-4 0  9999
2 A0211  49.9936 245.7931 0000203   4.4956 355.5918 13.29327794  5480

Śledź HULIANWANG DIGUI-186 w czasie rzeczywistym z AllMySat

Download on the App Store